User: anonymous   Login
Location: Unspecified
(0.0000°N, 0.0000°E)
Time: 00:14:53
(UTC+00:00)
Language:

TBA - TO BE ASSIGNED - Orbit

View from above orbital plane
View from above orbital plane
View from above satellite
View from above satellite

Ground track
Ground track

The orbit is defined by the following mean orbital elements,

1 67411U          26145.36153153 +.00000000 +00000-0 +29011-3 0 00003
2 67411  43.0020 164.8733 0001261 261.8814  98.1895 15.27581168    06
Epoch (UTC): 25 May 2026 08:40:36
Eccentricity: 0.0001261
inclination: 43.0020°
perigee height: 482 km
apogee height: 484 km
right ascension of ascending node: 164.8733°
argument of perigee: 261.8814°
revolutions per day: 15.27581168
mean anomaly at epoch: 98.1895°

The dashed part of the orbit path shows where the satellite is in the earth's shadow,  

DLR